date,time,SUV Intensity [MED/Hr],UV Index,Daily total [MED],Since Last [MED]
05/09/2023,00:00:54,0.000,0.0,0.0,0.0
05/09/2023,00:01:54,0.000,0.0,0.0,0.0
05/09/2023,00:02:54,0.001,0.0,0.0,0.0
05/09/2023,00:03:55,0.000,0.0,0.0,0.0
05/09/2023,00:04:54,0.000,0.0,0.0,0.0
05/09/2023,00:05:55,-0.000,0.0,0.0,0.0
05/09/2023,00:06:54,0.001,0.0,0.0,0.0
05/09/2023,00:07:55,0.001,0.0,0.0,0.0
05/09/2023,00:08:54,0.000,0.0,0.0,0.0
05/09/2023,00:09:54,0.001,0.0,0.0,0.0
05/09/2023,00:10:54,0.000,0.0,0.0,0.0
05/09/2023,00:11:55,0.000,0.0,0.0,0.0
05/09/2023,00:12:54,0.000,0.0,0.0,0.0
05/09/2023,00:13:54,0.000,0.0,0.0,0.0
05/09/2023,00:14:54,0.001,0.0,0.0,0.0
05/09/2023,00:15:54,-0.000,0.0,0.0,0.0
05/09/2023,00:16:54,0.001,0.0,0.0,0.0
05/09/2023,00:17:54,0.000,0.0,0.0,0.0
05/09/2023,00:18:54,-0.000,0.0,0.0,0.0
05/09/2023,00:19:55,0.000,0.0,0.0,0.0
05/09/2023,00:20:54,0.000,0.0,0.0,0.0
05/09/2023,00:21:54,0.001,0.0,0.0,0.0
05/09/2023,00:22:54,-0.000,0.0,0.0,0.0
05/09/2023,00:23:55,0.000,0.0,0.0,0.0
05/09/2023,00:24:54,-0.000,0.0,0.0,0.0
05/09/2023,00:25:55,0.000,0.0,0.0,0.0
05/09/2023,00:26:52,-0.000,0.0,0.0,0.0
05/09/2023,00:27:52,0.000,0.0,0.0,0.0
05/09/2023,00:28:54,0.000,0.0,0.0,0.0
05/09/2023,00:29:54,0.000,0.0,0.0,0.0
05/09/2023,00:30:55,0.000,0.0,0.0,0.0
05/09/2023,00:31:54,0.000,0.0,0.0,0.0
05/09/2023,00:32:54,0.000,0.0,0.0,0.0
05/09/2023,00:33:54,0.000,0.0,0.0,0.0
05/09/2023,00:34:55,0.001,0.0,0.0,0.0
05/09/2023,00:35:54,0.001,0.0,0.0,0.0
05/09/2023,00:36:54,0.002,0.0,0.0,0.0
05/09/2023,00:37:55,0.000,0.0,0.0,0.0
05/09/2023,00:38:52,0.000,0.0,0.0,0.0
05/09/2023,00:39:53,-0.000,0.0,0.0,0.0
05/09/2023,00:40:55,0.000,0.0,0.0,0.0
05/09/2023,00:41:54,0.000,0.0,0.0,0.0
05/09/2023,00:42:55,0.000,0.0,0.0,0.0
05/09/2023,00:43:54,0.000,0.0,0.0,0.0
05/09/2023,00:44:55,0.001,0.0,0.0,0.0
05/09/2023,00:45:54,0.000,0.0,0.0,0.0
05/09/2023,00:46:54,0.000,0.0,0.0,0.0
05/09/2023,00:47:54,0.001,0.0,0.0,0.0
05/09/2023,00:48:55,-0.000,0.0,0.0,0.0
05/09/2023,00:49:54,0.000,0.0,0.0,0.0
05/09/2023,00:50:54,0.000,0.0,0.0,0.0
05/09/2023,00:51:54,0.001,0.0,0.0,0.0
05/09/2023,00:52:55,0.000,0.0,0.0,0.0
05/09/2023,00:53:54,0.001,0.0,0.0,0.0
05/09/2023,00:54:54,0.000,0.0,0.0,0.0
05/09/2023,00:55:54,0.001,0.0,0.0,0.0
05/09/2023,00:56:55,0.001,0.0,0.0,0.0
05/09/2023,00:57:52,0.001,0.0,0.0,0.0
05/09/2023,00:58:53,0.001,0.0,0.0,0.0
05/09/2023,00:59:55,0.001,0.0,0.0,0.0
05/09/2023,01:00:55,0.001,0.0,0.0,0.0
05/09/2023,01:01:54,0.000,0.0,0.0,0.0
05/09/2023,01:02:53,0.000,0.0,0.0,0.0
05/09/2023,01:03:52,0.000,0.0,0.0,0.0
05/09/2023,01:04:54,0.000,0.0,0.0,0.0
05/09/2023,01:05:54,-0.000,0.0,0.0,0.0
05/09/2023,01:06:54,0.001,0.0,0.0,0.0
05/09/2023,01:07:54,0.001,0.0,0.0,0.0
05/09/2023,01:08:55,0.000,0.0,0.0,0.0
05/09/2023,01:09:54,0.001,0.0,0.0,0.0
05/09/2023,01:10:54,-0.000,0.0,0.0,0.0
05/09/2023,01:11:55,-0.000,0.0,0.0,0.0
05/09/2023,01:12:54,0.000,0.0,0.0,0.0
05/09/2023,01:13:54,-0.000,0.0,0.0,0.0
05/09/2023,01:14:54,0.001,0.0,0.0,0.0
05/09/2023,01:15:55,-0.000,0.0,0.0,0.0
05/09/2023,01:16:55,0.000,0.0,0.0,0.0
05/09/2023,01:17:54,0.000,0.0,0.0,0.0
05/09/2023,01:18:54,0.002,0.0,0.0,0.0
05/09/2023,01:19:54,0.002,0.0,0.0,0.0
05/09/2023,01:20:55,0.001,0.0,0.0,0.0
05/09/2023,01:21:54,0.001,0.0,0.0,0.0
05/09/2023,01:22:55,0.001,0.0,0.0,0.0
05/09/2023,01:23:54,0.001,0.0,0.0,0.0
05/09/2023,01:24:55,-0.000,0.0,0.0,0.0
05/09/2023,01:25:54,-0.000,0.0,0.0,0.0
05/09/2023,01:26:55,-0.000,0.0,0.0,0.0
05/09/2023,01:27:55,-0.000,0.0,0.0,0.0
05/09/2023,01:28:54,0.001,0.0,0.0,0.0
05/09/2023,01:29:53,0.002,0.0,0.0,0.0
05/09/2023,01:30:53,-0.000,0.0,0.0,0.0
05/09/2023,01:31:55,0.001,0.0,0.0,0.0
05/09/2023,01:32:54,0.001,0.0,0.0,0.0
05/09/2023,01:33:55,0.001,0.0,0.0,0.0
05/09/2023,01:34:54,-0.000,0.0,0.0,0.0
05/09/2023,01:35:54,0.000,0.0,0.0,0.0
05/09/2023,01:36:55,0.002,0.0,0.0,0.0
05/09/2023,01:37:54,0.000,0.0,0.0,0.0
05/09/2023,01:38:54,0.000,0.0,0.0,0.0
05/09/2023,01:39:55,0.001,0.0,0.0,0.0
05/09/2023,01:40:54,0.001,0.0,0.0,0.0
05/09/2023,01:41:54,0.001,0.0,0.0,0.0
05/09/2023,01:42:55,0.001,0.0,0.0,0.0
05/09/2023,01:43:55,0.001,0.0,0.0,0.0
05/09/2023,01:44:54,0.002,0.0,0.0,0.0
05/09/2023,01:45:54,0.001,0.0,0.0,0.0
05/09/2023,01:46:55,0.001,0.0,0.0,0.0
05/09/2023,01:47:54,0.001,0.0,0.0,0.0
05/09/2023,01:48:54,0.000,0.0,0.0,0.0
05/09/2023,01:49:54,-0.000,0.0,0.0,0.0
05/09/2023,01:50:55,-0.000,0.0,0.0,0.0
05/09/2023,01:51:54,0.001,0.0,0.0,0.0
05/09/2023,01:52:55,-0.000,0.0,0.0,0.0
05/09/2023,01:53:55,-0.000,0.0,0.0,0.0
05/09/2023,01:54:54,0.000,0.0,0.0,0.0
05/09/2023,01:55:55,0.001,0.0,0.0,0.0
05/09/2023,01:56:54,0.001,0.0,0.0,0.0
05/09/2023,01:57:53,0.001,0.0,0.0,0.0
05/09/2023,01:58:53,0.000,0.0,0.0,0.0
05/09/2023,01:59:54,0.000,0.0,0.0,0.0
05/09/2023,02:00:55,0.001,0.0,0.0,0.0
05/09/2023,02:01:55,0.000,0.0,0.0,0.0
05/09/2023,02:02:54,0.001,0.0,0.0,0.0
05/09/2023,02:03:55,0.001,0.0,0.0,0.0
05/09/2023,02:04:54,-0.000,0.0,0.0,0.0
05/09/2023,02:05:54,0.001,0.0,0.0,0.0
05/09/2023,02:06:54,0.001,0.0,0.0,0.0
05/09/2023,02:07:54,0.001,0.0,0.0,0.0
05/09/2023,02:08:55,0.000,0.0,0.0,0.0
05/09/2023,02:09:53,0.001,0.0,0.0,0.0
05/09/2023,02:10:52,-0.000,0.0,0.0,0.0
05/09/2023,02:11:55,0.001,0.0,0.0,0.0
05/09/2023,02:12:55,0.000,0.0,0.0,0.0
05/09/2023,02:13:54,-0.000,0.0,0.0,0.0
05/09/2023,02:14:55,0.001,0.0,0.0,0.0
05/09/2023,02:15:54,0.000,0.0,0.0,0.0
05/09/2023,02:16:54,-0.000,0.0,0.0,0.0
05/09/2023,02:17:55,0.001,0.0,0.0,0.0
05/09/2023,02:18:54,0.001,0.0,0.0,0.0
05/09/2023,02:19:54,-0.000,0.0,0.0,0.0
05/09/2023,02:20:52,0.001,0.0,0.0,0.0
05/09/2023,02:21:52,0.001,0.0,0.0,0.0
05/09/2023,02:22:54,0.000,0.0,0.0,0.0
05/09/2023,02:23:55,0.001,0.0,0.0,0.0
05/09/2023,02:24:54,0.001,0.0,0.0,0.0
05/09/2023,02:25:54,-0.000,0.0,0.0,0.0
05/09/2023,02:26:55,0.001,0.0,0.0,0.0
05/09/2023,02:27:54,0.001,0.0,0.0,0.0
05/09/2023,02:28:55,0.001,0.0,0.0,0.0
05/09/2023,02:29:55,0.001,0.0,0.0,0.0
05/09/2023,02:30:55,0.001,0.0,0.0,0.0
05/09/2023,02:31:54,0.001,0.0,0.0,0.0
05/09/2023,02:32:54,-0.000,0.0,0.0,0.0
05/09/2023,02:33:54,0.001,0.0,0.0,0.0
05/09/2023,02:34:54,0.001,0.0,0.0,0.0
05/09/2023,02:35:55,0.001,0.0,0.0,0.0
05/09/2023,02:36:54,0.001,0.0,0.0,0.0
05/09/2023,02:37:53,-0.000,0.0,0.0,0.0
05/09/2023,02:38:53,0.001,0.0,0.0,0.0
05/09/2023,02:39:54,0.002,0.0,0.0,0.0
05/09/2023,02:40:53,0.001,0.0,0.0,0.0
05/09/2023,02:41:53,0.001,0.0,0.0,0.0
05/09/2023,02:42:55,0.001,0.0,0.0,0.0
05/09/2023,02:43:54,0.001,0.0,0.0,0.0
05/09/2023,02:44:54,-0.000,0.0,0.0,0.0
05/09/2023,02:45:54,0.001,0.0,0.0,0.0
05/09/2023,02:46:55,0.000,0.0,0.0,0.0
05/09/2023,02:47:54,-0.000,0.0,0.0,0.0
05/09/2023,02:48:55,0.001,0.0,0.0,0.0
05/09/2023,02:49:54,0.001,0.0,0.0,0.0
05/09/2023,02:50:55,-0.000,0.0,0.0,0.0
05/09/2023,02:51:54,-0.000,0.0,0.0,0.0
05/09/2023,02:52:54,0.001,0.0,0.0,0.0
05/09/2023,02:53:58,0.001,0.0,0.0,0.0
05/09/2023,02:54:54,0.001,0.0,0.0,0.0
05/09/2023,02:55:53,0.001,0.0,0.0,0.0
05/09/2023,02:56:55,0.001,0.0,0.0,0.0
05/09/2023,02:57:54,0.000,0.0,0.0,0.0
05/09/2023,02:58:54,0.000,0.0,0.0,0.0
05/09/2023,02:59:55,0.002,0.0,0.0,0.0
05/09/2023,03:00:55,0.000,0.0,0.0,0.0
05/09/2023,03:01:55,0.000,0.0,0.0,0.0
05/09/2023,03:02:54,0.001,0.0,0.0,0.0
05/09/2023,03:03:55,0.001,0.0,0.0,0.0
05/09/2023,03:04:54,0.001,0.0,0.0,0.0
05/09/2023,03:05:55,0.001,0.0,0.0,0.0
05/09/2023,03:06:55,0.001,0.0,0.0,0.0
05/09/2023,03:07:54,-0.000,0.0,0.0,0.0
05/09/2023,03:08:55,0.000,0.0,0.0,0.0
05/09/2023,03:09:54,0.001,0.0,0.0,0.0
05/09/2023,03:10:55,0.001,0.0,0.0,0.0
05/09/2023,03:11:55,0.001,0.0,0.0,0.0
05/09/2023,03:12:54,0.001,0.0,0.0,0.0
05/09/2023,03:13:54,0.001,0.0,0.0,0.0
05/09/2023,03:14:52,-0.000,0.0,0.0,0.0
05/09/2023,03:15:53,0.001,0.0,0.0,0.0
05/09/2023,03:16:54,0.000,0.0,0.0,0.0
05/09/2023,03:17:55,0.001,0.0,0.0,0.0
05/09/2023,03:18:54,0.001,0.0,0.0,0.0
05/09/2023,03:19:55,0.001,0.0,0.0,0.0
05/09/2023,03:20:55,-0.000,0.0,0.0,0.0
05/09/2023,03:21:55,0.001,0.0,0.0,0.0
05/09/2023,03:22:55,-0.000,0.0,0.0,0.0
05/09/2023,03:23:55,0.001,0.0,0.0,0.0
05/09/2023,03:24:54,0.001,0.0,0.0,0.0
05/09/2023,03:25:55,0.002,0.0,0.0,0.0
05/09/2023,03:26:54,0.001,0.0,0.0,0.0
05/09/2023,03:27:54,0.002,0.0,0.0,0.0
05/09/2023,03:28:55,0.000,0.0,0.0,0.0
05/09/2023,03:29:55,0.001,0.0,0.0,0.0
05/09/2023,03:30:55,0.001,0.0,0.0,0.0
05/09/2023,03:31:55,0.001,0.0,0.0,0.0
05/09/2023,03:32:54,0.001,0.0,0.0,0.0
05/09/2023,03:33:55,0.000,0.0,0.0,0.0
05/09/2023,03:34:52,0.001,0.0,0.0,0.0
05/09/2023,03:35:53,0.001,0.0,0.0,0.0
05/09/2023,03:36:55,0.001,0.0,0.0,0.0
05/09/2023,03:37:55,0.001,0.0,0.0,0.0
05/09/2023,03:38:55,0.000,0.0,0.0,0.0
05/09/2023,03:39:55,0.000,0.0,0.0,0.0
05/09/2023,03:40:55,0.001,0.0,0.0,0.0
05/09/2023,03:41:54,0.002,0.0,0.0,0.0
05/09/2023,03:42:55,0.001,0.0,0.0,0.0
05/09/2023,03:43:55,0.001,0.0,0.0,0.0
05/09/2023,03:44:54,0.001,0.0,0.0,0.0
05/09/2023,03:45:55,0.001,0.0,0.0,0.0
05/09/2023,03:46:55,0.001,0.0,0.0,0.0
05/09/2023,03:47:54,0.001,0.0,0.0,0.0
05/09/2023,03:48:55,0.001,0.0,0.0,0.0
05/09/2023,03:49:54,0.001,0.0,0.0,0.0
05/09/2023,03:50:54,0.001,0.0,0.0,0.0
05/09/2023,03:51:55,0.001,0.0,0.0,0.0
05/09/2023,03:52:54,0.000,0.0,0.0,0.0
05/09/2023,03:53:54,0.001,0.0,0.0,0.0
05/09/2023,03:54:55,0.000,0.0,0.0,0.0
05/09/2023,03:55:54,0.000,0.0,0.0,0.0
05/09/2023,03:56:55,0.001,0.0,0.0,0.0
05/09/2023,03:57:55,0.001,0.0,0.0,0.0
05/09/2023,03:58:55,0.001,0.0,0.0,0.0
05/09/2023,03:59:55,0.001,0.0,0.0,0.0
05/09/2023,04:00:54,0.001,0.0,0.0,0.0
05/09/2023,04:01:55,0.001,0.0,0.0,0.0
05/09/2023,04:02:54,0.001,0.0,0.0,0.0
05/09/2023,04:03:55,0.002,0.0,0.0,0.0
05/09/2023,04:04:54,0.002,0.0,0.0,0.0
05/09/2023,04:05:55,0.001,0.0,0.0,0.0
05/09/2023,04:06:55,0.000,0.0,0.0,0.0
05/09/2023,04:07:55,-0.000,0.0,0.0,0.0
05/09/2023,04:08:55,0.001,0.0,0.0,0.0
05/09/2023,04:09:54,0.001,0.0,0.0,0.0
05/09/2023,04:10:55,0.000,0.0,0.0,0.0
05/09/2023,04:11:55,0.002,0.0,0.0,0.0
05/09/2023,04:12:55,0.002,0.0,0.0,0.0
05/09/2023,04:13:54,0.001,0.0,0.0,0.0
05/09/2023,04:14:55,0.001,0.0,0.0,0.0
05/09/2023,04:15:54,0.001,0.0,0.0,0.0
05/09/2023,04:16:55,0.000,0.0,0.0,0.0
05/09/2023,04:17:55,0.000,0.0,0.0,0.0
05/09/2023,04:18:54,0.000,0.0,0.0,0.0
05/09/2023,04:19:55,0.001,0.0,0.0,0.0
05/09/2023,04:20:54,0.001,0.0,0.0,0.0
05/09/2023,04:21:54,0.001,0.0,0.0,0.0
05/09/2023,04:22:55,0.001,0.0,0.0,0.0
05/09/2023,04:23:54,0.001,0.0,0.0,0.0
05/09/2023,04:24:55,0.002,0.0,0.0,0.0
05/09/2023,04:25:55,0.001,0.0,0.0,0.0
05/09/2023,04:26:55,0.001,0.0,0.0,0.0
05/09/2023,04:27:54,0.001,0.0,0.0,0.0
05/09/2023,04:28:54,0.001,0.0,0.0,0.0
05/09/2023,04:29:55,0.000,0.0,0.0,0.0
05/09/2023,04:30:54,0.001,0.0,0.0,0.0
05/09/2023,04:31:55,0.001,0.0,0.0,0.0
05/09/2023,04:32:55,0.001,0.0,0.0,0.0
05/09/2023,04:33:55,0.001,0.0,0.0,0.0
05/09/2023,04:34:55,0.001,0.0,0.0,0.0
05/09/2023,04:35:55,0.001,0.0,0.0,0.0
05/09/2023,04:36:55,0.001,0.0,0.0,0.0
05/09/2023,04:37:56,0.001,0.0,0.0,0.0
05/09/2023,04:38:54,0.002,0.0,0.0,0.0
05/09/2023,04:39:55,0.001,0.0,0.0,0.0
05/09/2023,04:40:55,0.001,0.0,0.0,0.0
05/09/2023,04:41:54,0.002,0.0,0.0,0.0
05/09/2023,04:42:55,0.001,0.0,0.0,0.0
05/09/2023,04:43:55,0.001,0.0,0.0,0.0
05/09/2023,04:44:55,0.002,0.0,0.0,0.0
05/09/2023,04:45:55,0.001,0.0,0.0,0.0
05/09/2023,04:46:55,0.001,0.0,0.0,0.0
05/09/2023,04:47:54,0.001,0.0,0.0,0.0
05/09/2023,04:48:55,0.001,0.0,0.0,0.0
05/09/2023,04:49:55,0.001,0.0,0.0,0.0
05/09/2023,04:50:55,0.000,0.0,0.0,0.0
05/09/2023,04:51:54,0.001,0.0,0.0,0.0
05/09/2023,04:52:56,0.001,0.0,0.0,0.0
05/09/2023,04:53:54,0.000,0.0,0.0,0.0
05/09/2023,04:54:55,0.001,0.0,0.0,0.0
05/09/2023,04:55:54,0.001,0.0,0.0,0.0
05/09/2023,04:56:54,0.001,0.0,0.0,0.0
05/09/2023,04:57:55,0.001,0.0,0.0,0.0
05/09/2023,04:58:55,0.001,0.0,0.0,0.0
05/09/2023,04:59:55,0.001,0.0,0.0,0.0
05/09/2023,05:00:55,0.001,0.0,0.0,0.0
05/09/2023,05:01:54,0.002,0.0,0.0,0.0
05/09/2023,05:02:55,0.002,0.0,0.0,0.0
05/09/2023,05:03:55,0.000,0.0,0.0,0.0
05/09/2023,05:04:54,0.002,0.0,0.0,0.0
05/09/2023,05:05:55,0.000,0.0,0.0,0.0
05/09/2023,05:06:54,0.000,0.0,0.0,0.0
05/09/2023,05:07:55,0.001,0.0,0.0,0.0
05/09/2023,05:08:55,0.002,0.0,0.0,0.0
05/09/2023,05:09:55,0.001,0.0,0.0,0.0
05/09/2023,05:10:54,0.002,0.0,0.0,0.0
05/09/2023,05:11:55,0.002,0.0,0.0,0.0
05/09/2023,05:12:55,0.003,0.0,0.0,0.0
05/09/2023,05:13:55,0.002,0.0,0.0,0.0
05/09/2023,05:14:55,0.003,0.0,0.0,0.0
05/09/2023,05:15:54,0.002,0.0,0.0,0.0
05/09/2023,05:16:55,0.002,0.0,0.0,0.0
05/09/2023,05:17:54,0.003,0.0,0.0,0.0
05/09/2023,05:18:55,0.002,0.0,0.0,0.0
05/09/2023,05:19:55,0.004,0.0,0.0,0.0
05/09/2023,05:20:55,0.003,0.0,0.0,0.0
05/09/2023,05:21:54,0.003,0.0,0.0,0.0
05/09/2023,05:22:54,0.003,0.0,0.0,0.0
05/09/2023,05:23:55,0.003,0.0,0.0,0.0
05/09/2023,05:24:55,0.004,0.0,0.0,0.0
05/09/2023,05:25:55,0.005,0.0,0.0,0.0
05/09/2023,05:26:54,0.004,0.0,0.0,0.0
05/09/2023,05:27:55,0.004,0.0,0.0,0.0
05/09/2023,05:28:55,0.005,0.0,0.0,0.0
05/09/2023,05:29:54,0.006,0.0,0.0,0.0
05/09/2023,05:30:55,0.006,0.0,0.0,0.0
05/09/2023,05:31:52,0.007,0.0,0.0,0.0
05/09/2023,05:32:53,0.006,0.0,0.0,0.0
05/09/2023,05:33:54,0.006,0.0,0.0,0.0
05/09/2023,05:34:55,0.007,0.0,0.0,0.0
05/09/2023,05:35:56,0.007,0.0,0.0,0.0
05/09/2023,05:36:55,0.008,0.0,0.0,0.0
05/09/2023,05:37:55,0.008,0.0,0.0,0.0
05/09/2023,05:38:57,0.008,0.0,0.001,0.001
05/09/2023,05:39:54,0.008,0.0,0.001,0.0
05/09/2023,05:40:55,0.009,0.0,0.001,0.0
05/09/2023,05:41:55,0.009,0.0,0.001,0.0
05/09/2023,05:42:54,0.010,0.0,0.001,0.0
05/09/2023,05:43:55,0.009,0.0,0.001,0.0
05/09/2023,05:44:55,0.010,0.0,0.001,0.0
05/09/2023,05:45:55,0.011,0.0,0.002,0.001
05/09/2023,05:46:55,0.011,0.0,0.002,0.0
05/09/2023,05:47:54,0.012,0.0,0.002,0.0
05/09/2023,05:48:55,0.012,0.0,0.002,0.0
05/09/2023,05:49:55,0.013,0.0,0.002,0.0
05/09/2023,05:50:54,0.013,0.0,0.003,0.001
05/09/2023,05:51:55,0.015,0.0,0.003,0.0
05/09/2023,05:52:55,0.014,0.0,0.003,0.0
05/09/2023,05:53:55,0.015,0.0,0.003,0.0
05/09/2023,05:54:54,0.015,0.0,0.004,0.001
05/09/2023,05:55:55,0.017,0.0,0.004,0.0
05/09/2023,05:56:55,0.017,0.0,0.004,0.0
05/09/2023,05:57:55,0.018,0.0,0.004,0.0
05/09/2023,05:58:55,0.019,0.0,0.005,0.001
05/09/2023,05:59:55,0.019,0.0,0.005,0.0
05/09/2023,06:00:55,0.019,0.0,0.005,0.0
05/09/2023,06:01:55,0.021,0.0,0.006,0.001
05/09/2023,06:02:55,0.021,0.0,0.006,0.0
05/09/2023,06:03:55,0.022,0.0,0.007,0.001
05/09/2023,06:04:58,0.024,0.0,0.007,0.0
05/09/2023,06:05:55,0.025,0.0,0.007,0.0
05/09/2023,06:06:55,0.026,0.0,0.008,0.001
05/09/2023,06:07:55,0.026,0.0,0.008,0.0
05/09/2023,06:08:55,0.026,0.0,0.009,0.001
05/09/2023,06:09:55,0.029,0.0,0.009,0.0
05/09/2023,06:10:55,0.029,0.0,0.01,0.001
05/09/2023,06:11:55,0.030,0.0,0.01,0.0
05/09/2023,06:12:54,0.031,0.0,0.011,0.001
05/09/2023,06:13:55,0.033,0.0,0.011,0.0
05/09/2023,06:14:55,0.033,0.0,0.012,0.001
05/09/2023,06:15:55,0.035,0.0,0.012,0.0
05/09/2023,06:16:54,0.036,0.0,0.013,0.001
05/09/2023,06:17:55,0.037,0.0,0.013,0.0
05/09/2023,06:18:54,0.038,0.0,0.014,0.001
05/09/2023,06:19:55,0.038,0.0,0.015,0.001
05/09/2023,06:20:55,0.041,0.0,0.015,0.0
05/09/2023,06:21:55,0.041,0.0,0.016,0.001
05/09/2023,06:22:53,0.043,0.0,0.017,0.001
05/09/2023,06:23:52,0.045,0.0,0.017,0.0
05/09/2023,06:24:55,0.046,0.0,0.018,0.001
05/09/2023,06:25:55,0.048,0.0,0.019,0.001
05/09/2023,06:26:55,0.048,0.0,0.02,0.001
05/09/2023,06:27:55,0.050,0.0,0.021,0.001
05/09/2023,06:28:55,0.051,0.0,0.022,0.001
05/09/2023,06:29:55,0.050,0.0,0.022,0.0
05/09/2023,06:30:55,0.051,0.0,0.023,0.001
05/09/2023,06:31:55,0.049,0.0,0.024,0.001
05/09/2023,06:32:55,0.049,0.0,0.025,0.001
05/09/2023,06:33:55,0.049,0.0,0.026,0.001
05/09/2023,06:34:55,0.048,0.0,0.026,0.0
05/09/2023,06:35:55,0.051,0.0,0.027,0.001
05/09/2023,06:36:55,0.051,0.0,0.028,0.001
05/09/2023,06:37:55,0.050,0.0,0.029,0.001
05/09/2023,06:38:55,0.052,0.0,0.03,0.001
05/09/2023,06:39:55,0.051,0.0,0.031,0.001
05/09/2023,06:40:55,0.051,0.0,0.032,0.001
05/09/2023,06:41:55,0.052,0.0,0.032,0.0
05/09/2023,06:42:55,0.053,0.0,0.033,0.001
05/09/2023,06:43:55,0.055,0.0,0.034,0.001
05/09/2023,06:44:55,0.054,0.0,0.035,0.001
05/09/2023,06:45:55,0.054,0.0,0.036,0.001
05/09/2023,06:46:55,0.056,0.0,0.037,0.001
05/09/2023,06:47:55,0.058,0.0,0.038,0.001
05/09/2023,06:48:54,0.058,0.0,0.039,0.001
05/09/2023,06:49:55,0.059,0.0,0.04,0.001
05/09/2023,06:50:55,0.058,0.0,0.041,0.001
05/09/2023,06:51:55,0.060,0.0,0.042,0.001
05/09/2023,06:52:55,0.062,0.0,0.043,0.001
05/09/2023,06:53:55,0.063,0.0,0.044,0.001
05/09/2023,06:54:55,0.063,0.0,0.045,0.001
05/09/2023,06:55:55,0.067,0.0,0.046,0.001
05/09/2023,06:56:55,0.071,0.0,0.047,0.001
05/09/2023,06:57:55,0.073,0.0,0.048,0.001
05/09/2023,06:58:55,0.075,0.0,0.05,0.002
05/09/2023,06:59:55,0.075,0.0,0.051,0.001
05/09/2023,07:00:55,0.078,0.0,0.052,0.001
05/09/2023,07:01:55,0.078,0.0,0.053,0.001
05/09/2023,07:02:54,0.082,0.0,0.055,0.002
05/09/2023,07:03:55,0.080,0.0,0.056,0.001
05/09/2023,07:04:55,0.080,0.0,0.057,0.001
05/09/2023,07:05:55,0.080,0.0,0.059,0.002
05/09/2023,07:06:55,0.085,0.0,0.06,0.001
05/09/2023,07:07:55,0.082,0.0,0.062,0.002
05/09/2023,07:08:54,0.082,0.0,0.063,0.001
05/09/2023,07:09:55,0.091,0.0,0.064,0.001
05/09/2023,07:10:55,0.091,0.0,0.066,0.002
05/09/2023,07:11:55,0.090,0.0,0.067,0.001
05/09/2023,07:12:55,0.093,0.0,0.069,0.002
05/09/2023,07:13:55,0.096,0.0,0.071,0.002
05/09/2023,07:14:55,0.099,0.0,0.072,0.001
05/09/2023,07:15:55,0.102,0.0,0.074,0.002
05/09/2023,07:16:55,0.102,0.0,0.075,0.001
05/09/2023,07:17:55,0.105,0.0,0.077,0.002
05/09/2023,07:18:55,0.108,0.0,0.079,0.002
05/09/2023,07:19:55,0.109,0.0,0.081,0.002
05/09/2023,07:20:55,0.112,0.0,0.083,0.002
05/09/2023,07:21:55,0.119,0.0,0.085,0.002
05/09/2023,07:22:55,0.116,0.0,0.087,0.002
05/09/2023,07:23:55,0.120,0.0,0.089,0.002
05/09/2023,07:24:55,0.120,0.0,0.091,0.002
05/09/2023,07:25:55,0.127,0.0,0.093,0.002
05/09/2023,07:26:55,0.133,0.0,0.095,0.002
05/09/2023,07:27:55,0.135,0.0,0.097,0.002
05/09/2023,07:28:55,0.139,0.0,0.099,0.002
05/09/2023,07:29:55,0.148,0.0,0.102,0.003
05/09/2023,07:30:55,0.149,0.0,0.104,0.002
05/09/2023,07:31:55,0.146,0.0,0.107,0.003
05/09/2023,07:32:56,0.147,0.0,0.109,0.002
05/09/2023,07:33:55,0.155,0.0,0.112,0.003
05/09/2023,07:34:55,0.148,0.0,0.114,0.002
05/09/2023,07:35:55,0.156,0.0,0.117,0.003
05/09/2023,07:36:55,0.155,0.0,0.119,0.002
05/09/2023,07:37:55,0.158,0.0,0.122,0.003
05/09/2023,07:38:56,0.156,0.0,0.124,0.002
05/09/2023,07:39:55,0.152,0.0,0.127,0.003
05/09/2023,07:40:55,0.159,0.0,0.13,0.003
05/09/2023,07:41:55,0.161,0.0,0.132,0.002
05/09/2023,07:42:55,0.166,0.0,0.135,0.003
05/09/2023,07:43:55,0.171,0.0,0.138,0.003
05/09/2023,07:44:55,0.176,0.0,0.141,0.003
05/09/2023,07:45:55,0.174,0.0,0.144,0.003
05/09/2023,07:46:55,0.185,0.0,0.147,0.003
05/09/2023,07:47:56,0.186,0.0,0.15,0.003
05/09/2023,07:48:56,0.191,0.0,0.153,0.003
05/09/2023,07:49:55,0.193,0.0,0.156,0.003
05/09/2023,07:50:55,0.222,1.0,0.16,0.004
05/09/2023,07:51:55,0.213,0.0,0.163,0.003
05/09/2023,07:52:55,0.236,1.0,0.167,0.004
05/09/2023,07:53:55,0.248,1.0,0.171,0.004
05/09/2023,07:54:55,0.260,1.0,0.175,0.004
05/09/2023,07:55:55,0.266,1.0,0.179,0.004
05/09/2023,07:56:55,0.263,1.0,0.184,0.005
05/09/2023,07:57:55,0.252,1.0,0.188,0.004
05/09/2023,07:58:55,0.260,1.0,0.192,0.004
05/09/2023,07:59:55,0.257,1.0,0.197,0.005
05/09/2023,08:00:55,0.265,1.0,0.201,0.004
05/09/2023,08:01:55,0.269,1.0,0.205,0.004
05/09/2023,08:02:55,0.265,1.0,0.21,0.005
05/09/2023,08:03:55,0.257,1.0,0.214,0.004
05/09/2023,08:04:56,0.262,1.0,0.219,0.005
05/09/2023,08:05:55,0.270,1.0,0.223,0.004
05/09/2023,08:06:55,0.279,1.0,0.228,0.005
05/09/2023,08:07:55,0.283,1.0,0.233,0.005
05/09/2023,08:08:55,0.296,1.0,0.237,0.004
05/09/2023,08:09:55,0.299,1.0,0.242,0.005
05/09/2023,08:10:55,0.316,1.0,0.247,0.005
05/09/2023,08:11:55,0.308,1.0,0.253,0.006
05/09/2023,08:12:55,0.320,1.0,0.258,0.005
05/09/2023,08:13:55,0.316,1.0,0.263,0.005
05/09/2023,08:14:56,0.339,1.0,0.269,0.006
05/09/2023,08:15:55,0.334,1.0,0.274,0.005
05/09/2023,08:16:55,0.346,1.0,0.28,0.006
05/09/2023,08:17:55,0.365,1.0,0.285,0.005
05/09/2023,08:18:53,0.396,1.0,0.292,0.007
05/09/2023,08:19:55,0.438,1.0,0.299,0.007
05/09/2023,08:20:55,0.404,1.0,0.306,0.007
05/09/2023,08:21:55,0.403,1.0,0.313,0.007
05/09/2023,08:22:55,0.470,1.0,0.321,0.008
05/09/2023,08:23:55,0.447,1.0,0.328,0.007
05/09/2023,08:24:55,0.476,1.0,0.336,0.008
05/09/2023,08:25:55,0.492,1.0,0.344,0.008
05/09/2023,08:26:55,0.506,1.0,0.352,0.008
05/09/2023,08:27:53,0.508,1.0,0.36,0.008
05/09/2023,08:28:53,0.515,1.0,0.369,0.009
05/09/2023,08:29:55,0.521,1.0,0.377,0.008
05/09/2023,08:30:56,0.529,1.0,0.386,0.009
05/09/2023,08:31:55,0.535,1.0,0.395,0.009
05/09/2023,08:32:55,0.545,1.0,0.404,0.009
05/09/2023,08:33:55,0.543,1.0,0.413,0.009
05/09/2023,08:34:55,0.558,1.0,0.422,0.009
05/09/2023,08:35:55,0.563,1.0,0.432,0.01
05/09/2023,08:36:55,0.569,1.0,0.441,0.009
05/09/2023,08:37:55,0.574,1.0,0.451,0.01
05/09/2023,08:38:56,0.581,1.0,0.461,0.01
05/09/2023,08:39:55,0.590,1.0,0.47,0.009
05/09/2023,08:40:55,0.598,1.0,0.48,0.01
05/09/2023,08:41:55,0.605,1.0,0.49,0.01
05/09/2023,08:42:55,0.606,1.0,0.5,0.01
05/09/2023,08:43:56,0.614,1.0,0.51,0.01
05/09/2023,08:44:56,0.619,1.0,0.521,0.011
05/09/2023,08:45:55,0.634,1.0,0.531,0.01
05/09/2023,08:46:56,0.639,1.0,0.542,0.011
05/09/2023,08:47:55,0.647,1.0,0.552,0.01
05/09/2023,08:48:55,0.653,2.0,0.563,0.011
05/09/2023,08:49:55,0.658,2.0,0.574,0.011
05/09/2023,08:50:55,0.659,2.0,0.585,0.011
05/09/2023,08:51:56,0.674,2.0,0.596,0.011
05/09/2023,08:52:55,0.682,2.0,0.608,0.012
05/09/2023,08:53:55,0.691,2.0,0.619,0.011
05/09/2023,08:54:55,0.691,2.0,0.63,0.011
05/09/2023,08:55:56,0.699,2.0,0.642,0.012
05/09/2023,08:56:55,0.708,2.0,0.653,0.011
05/09/2023,08:57:53,0.716,2.0,0.665,0.012
05/09/2023,08:58:53,0.727,2.0,0.677,0.012
05/09/2023,08:59:55,0.730,2.0,0.689,0.012
05/09/2023,09:00:55,0.740,2.0,0.702,0.013
05/09/2023,09:01:55,0.752,2.0,0.715,0.013
05/09/2023,09:02:55,0.758,2.0,0.727,0.012
05/09/2023,09:03:55,0.764,2.0,0.739,0.012
05/09/2023,09:04:56,0.772,2.0,0.753,0.014
05/09/2023,09:05:55,0.781,2.0,0.766,0.013
05/09/2023,09:06:56,0.789,2.0,0.779,0.013
05/09/2023,09:07:55,0.795,2.0,0.792,0.013
05/09/2023,09:08:55,0.798,2.0,0.805,0.013
05/09/2023,09:09:55,0.813,2.0,0.818,0.013
05/09/2023,09:10:56,0.819,2.0,0.832,0.014
05/09/2023,09:11:55,0.824,2.0,0.846,0.014
05/09/2023,09:12:55,0.831,2.0,0.859,0.013
05/09/2023,09:13:55,0.840,2.0,0.873,0.014
05/09/2023,09:14:55,0.844,2.0,0.887,0.014
05/09/2023,09:15:56,0.855,2.0,0.902,0.015
05/09/2023,09:16:55,0.861,2.0,0.916,0.014
05/09/2023,09:17:55,0.869,2.0,0.931,0.015
05/09/2023,09:18:56,0.878,2.0,0.945,0.014
05/09/2023,09:19:55,0.882,2.0,0.96,0.015
05/09/2023,09:20:55,0.890,2.0,0.975,0.015
05/09/2023,09:21:55,0.903,2.0,0.99,0.015
05/09/2023,09:22:55,0.909,2.0,1.005,0.015
05/09/2023,09:23:55,0.913,2.0,1.019,0.014
05/09/2023,09:24:55,0.924,2.0,1.035,0.016
05/09/2023,09:25:55,0.928,2.0,1.05,0.015
05/09/2023,09:26:55,0.939,2.0,1.066,0.016
05/09/2023,09:27:55,0.942,2.0,1.081,0.015
05/09/2023,09:28:56,0.949,2.0,1.097,0.016
05/09/2023,09:29:55,0.956,2.0,1.113,0.016
05/09/2023,09:30:55,0.961,2.0,1.129,0.016
05/09/2023,09:31:55,0.972,2.0,1.145,0.016
05/09/2023,09:32:55,0.981,2.0,1.161,0.016
05/09/2023,09:33:56,0.988,2.0,1.178,0.017
05/09/2023,09:34:55,0.991,2.0,1.195,0.017
05/09/2023,09:35:55,0.996,2.0,1.211,0.016
05/09/2023,09:36:55,1.009,2.0,1.227,0.016
05/09/2023,09:37:55,1.016,2.0,1.245,0.018
05/09/2023,09:38:55,1.022,2.0,1.261,0.016
05/09/2023,09:39:55,1.030,2.0,1.278,0.017
05/09/2023,09:40:53,1.038,2.0,1.296,0.018
05/09/2023,09:41:53,1.046,2.0,1.312,0.016
05/09/2023,09:42:55,1.050,2.0,1.331,0.019
05/09/2023,09:43:55,1.062,2.0,1.349,0.018
05/09/2023,09:44:55,1.069,2.0,1.366,0.017
05/09/2023,09:46:18,1.082,2.0,1.391,0.025
05/09/2023,09:46:55,1.086,2.0,1.402,0.011
05/09/2023,09:47:55,1.096,3.0,1.421,0.019
05/09/2023,09:48:54,1.099,3.0,1.438,0.017
05/09/2023,09:49:53,1.108,3.0,1.457,0.019
05/09/2023,09:50:56,1.115,3.0,1.476,0.019
05/09/2023,09:51:55,1.123,3.0,1.494,0.018
05/09/2023,09:52:55,1.129,3.0,1.513,0.019
05/09/2023,09:53:55,1.138,3.0,1.531,0.018
05/09/2023,09:54:56,1.147,3.0,1.551,0.02
05/09/2023,09:55:56,1.155,3.0,1.57,0.019
05/09/2023,09:56:56,1.167,3.0,1.59,0.02
05/09/2023,09:57:56,1.168,3.0,1.609,0.019
05/09/2023,09:58:57,1.182,3.0,1.629,0.02
05/09/2023,09:59:56,1.180,3.0,1.648,0.019
05/09/2023,10:00:55,1.187,3.0,1.668,0.02
05/09/2023,10:01:55,1.190,3.0,1.687,0.019
05/09/2023,10:02:55,1.203,3.0,1.708,0.021